Home   Weather   Ibiza   Past weeks

Flag for Spain Past Weather in Ibiza, Ibiza, Spain — Yesterday and Last 2 Weeks

Now
63 °F

Passing clouds.


Feels Like: 63 °F
Forecast: 55 / 66 °F
Wind: 5 mph from East

Location: Ibiza / Es Codola

Current Time: Dec 3, 2016 at 4:42:11 pm

Latest Report: Dec 3, 2016 at 4:00 pm


Visibility: N/A

Pressure: 29.95 "Hg

Humidity: 73%

Dew Point: 54 °F

Location of IbizaLocation

Past Weather in Ibiza — Graph

°F

Ibiza Temperature Yesterday

Maximum temperature yesterday: 63 °F (at 1:30 pm)
Minimum temperature yesterday: 50 °F (at 9:30 pm)
Average temperature yesterday: 57 °F

High & Low Weather Summary for the Past Weeks

 TemperatureHumidityPressure
High72 °F (Nov 22, 2:30 pm)100% (Dec 3, 5:30 am)30.42 "Hg (Dec 3, 5:30 am)
Low45 °F (Nov 25, 7:30 am)46% (Nov 26, 2:00 pm)29.59 "Hg (Nov 22, 5:30 pm)
Average60 °F74%29.92 "Hg
* Reported Nov 18 3:00 pm — Dec 3 3:30 pm, Ibiza, Weather by CustomWeather, © 2016

Note: Actual official high and low records may vary slightly from our data, if they occured in-between our weather recording intervals... More about our weather records

Advertising

Ibiza Weather History for the Previous 24 Hours

Scroll right to see more
 ConditionsComfort  
Time TempWeatherWind HumidityBarometerVisibility
3:30 pm
Sat, Dec 3
63 °FPassing clouds.5 mph73%29.95 "HgN/A
3:00 pm63 °FScattered clouds.5 mph73%29.95 "HgN/A
2:30 pm63 °FPartly sunny.2 mph73%29.95 "HgN/A
2:00 pm63 °FPartly sunny.2 mph68%29.98 "HgN/A
1:30 pm63 °FScattered clouds.2 mph68%29.98 "HgN/A
1:00 pm63 °FScattered clouds.5 mph73%29.98 "HgN/A
12:30 pm63 °FScattered clouds.5 mph73%29.98 "HgN/A
12:00 pm63 °FPartly sunny.5 mph77%29.98 "HgN/A
11:30 am61 °FPartly sunny.5 mph83%29.98 "HgN/A
11:00 am61 °FPartly sunny.3 mph83%30.01 "HgN/A
10:30 am57 °FScattered clouds.1 mph94%29.98 "HgN/A
10:00 am57 °FPassing clouds.1 mph94%29.98 "HgN/A
9:30 am54 °FScattered clouds.3 mph100%29.98 "HgN/A
9:00 am50 °FPassing clouds.No wind94%29.98 "HgN/A
8:30 am50 °FPassing clouds.3 mph94%29.98 "HgN/A
8:00 am50 °FPassing clouds.3 mph94%29.98 "HgN/A
7:30 am48 °FPassing clouds.3 mph100%29.98 "HgN/A
7:00 am48 °FPassing clouds.1 mph94%29.98 "HgN/A
6:30 am50 °FPassing clouds.2 mph94%29.95 "HgN/A
6:00 am48 °FPassing clouds.3 mph100%29.95 "HgN/A
5:30 am48 °FPassing clouds.1 mph100%29.95 "HgN/A
12:00 am48 °FClear.2 mph94%30.01 "Hg10 mi
11:30 pm
Fri, Dec 2
52 °FCool.3 mph88%30.01 "HgN/A
11:00 pm52 °FPassing clouds.3 mph88%30.01 "HgN/A
10:30 pm52 °FClear.3 mph88%30.01 "Hg10 mi
10:00 pm52 °FClear.1 mph88%30.01 "Hg10 mi
9:30 pm50 °FClear.No wind94%30.01 "Hg10 mi
9:00 pm52 °FClear.2 mph88%30.01 "Hg10 mi
8:30 pm52 °FClear.3 mph88%30.01 "Hg10 mi
8:00 pm52 °FClear.No wind88%30.04 "Hg10 mi
7:30 pm54 °FClear.No wind88%30.04 "Hg10 mi
7:00 pm54 °FClear.2 mph88%30.04 "Hg10 mi
6:00 pm57 °FPassing clouds.5 mph77%30.01 "HgN/A
5:30 pm59 °FPassing clouds.6 mph72%30.04 "HgN/A
5:00 pm61 °FPassing clouds.7 mph72%30.04 "HgN/A
4:30 pm63 °FPassing clouds.6 mph64%30.04 "HgN/A
4:00 pm61 °FPassing clouds.8 mph72%30.04 "HgN/A
Weather by CustomWeather, © 2016

See weather overviewHow to use our weather pages